This demonstration page uses our WeatherBlox Daily Observations layout. Learn more.

Left ArrowRight Arrow

39.29038, -76.61219

Hourly Observations for October 10, 2020

Temp ( °F °C ) Dew Point ( °F °C ) Humidity (%) Winds ( mph kmh ) Pressure ( in mb ) Visibility ( mi km ) Precip ( " mm )
12:54 am 00:54 Cloudy 57 13.9 50 10 78 78 Calm 30.12 1020 10 16 0.00 0.00
1:54 am 01:54 Cloudy 55 12.8 50 10 83 83 Calm 30.12 1020 10 16 0.00 0.00
2:54 am 02:54 Cloudy 57 13.9 52 11.1 83 83 SSW 3 6 30.10 1019 10 16 0.00 0.00
3:54 am 03:54 Cloudy 58 14.4 52 11.1 81 81 Calm 30.08 1019 10 16 0.00 0.00
4:54 am 04:54 Cloudy 56 13.3 52 11.1 87 87 Calm 30.07 1018 10 16 0.00 0.00
5:54 am 05:54 Cloudy 58 14.4 53 11.7 84 84 VRB 3 6 30.07 1018 10 16 0.00 0.00
6:54 am 06:54 Cloudy 56 13.3 52 11.1 87 87 Calm 30.08 1019 10 16 0.00 0.00
7:54 am 07:54 Cloudy 57 13.9 53 11.7 87 87 Calm 30.08 1019 10 16 0.00 0.00
8:54 am 08:54 Cloudy 58 14.4 54 12.2 87 87 Calm 30.09 1019 10 16 0.00 0.00
9:54 am 09:54 Cloudy 62 16.7 56 13.3 80 80 SW 3 6 30.07 1018 10 16 0.00 0.00
10:54 am 10:54 Cloudy 66 18.9 57 13.9 73 73 SW 5 7 30.06 1018 10 16 0.00 0.00
11:54 am 11:54 Cloudy 68 20 58 14.4 70 70 SW 7 11 30.05 1018 10 16 0.00 0.00
12:54 pm 12:54 Mostly Cloudy 71 21.7 59 15 66 66 SW 9 15 30.03 1017 10 16 0.00 0.00
1:54 pm 13:54 Cloudy 72 22.2 59 15 64 64 SSW 9 15 29.99 1016 10 16 0.00 0.00
2:54 pm 14:54 Cloudy 73 22.8 61 16.1 66 66 WSW 9 15 29.97 1015 10 16 0.00 0.00
3:54 pm 15:54 Cloudy 74 23.3 62 16.7 67 67 VRB 6 9 29.97 1015 10 16 0.00 0.00
4:54 pm 16:54 Cloudy 73 22.8 61 16.1 66 66 SSW 7 11 29.97 1015 10 16 0.00 0.00
5:54 pm 17:54 Cloudy 71 21.7 63 17.2 76 76 SW 7 11 29.98 1015 10 16 0.00 0.00
6:54 pm 18:54 Cloudy 69 20.6 62 16.7 78 78 SW 8 13 29.98 1015 10 16 0.00 0.00
7:54 pm 19:54 Cloudy 68 20 62 16.7 81 81 SW 7 11 29.97 1015 10 16 0.00 0.00
8:54 pm 20:54 Cloudy 67 19.4 62 16.7 84 84 SW 7 11 29.98 1015 10 16 0.00 0.00
9:54 pm 21:54 Cloudy 67 19.4 62 16.7 84 84 SW 6 9 29.98 1015 10 16 0.00 0.00
10:54 pm 22:54 Cloudy 67 19.4 62 16.7 84 84 SW 5 7 29.99 1016 10 16 0.00 0.00
11:54 pm 23:54 Cloudy 67 19.4 61 16.1 81 81 W 7 11 30.00 1016 10 16 0.00 0.00

Powered by AerisWeather